Meteo Giornale » Osservazioni meteo Giordania » Amman
ore: 20:00 - Osservazioni Meteo Amman
Lat. 31° 59' N Lon. 35° 59' E Alt. 767 metri s.l.m.
25 °C
Poco Nuvoloso
Temp. 24 Ore
21 °C
30 °C
Nord-Ovest
16.7 Km/h
Dew point 18 °C
Umidità 65 %
Visibilità 7 Km
Il sole sorge alle ore 06:10
Il sole tramonta alle ore 19:02
| Data e Ora | Cielo e Fenomeni | T °C | DP °C | Um. % | Pres. hPa | Vis. km | Vento km/h | |
|---|---|---|---|---|---|---|---|---|
| Oggi h: 20:00 | Poco Nuvoloso | 25 | 18 | 65 | 1014 | 7 | NO 16.7 | |
| Oggi h: 19:00 | Nuvoloso | 27 | 17 | 54 | 1013 | 6 | O 18.5 | |
| Oggi h: 18:00 | Foschia | 29 | 16 | 45 | 1013 | 5 | O 16.7 | |
| Oggi h: 17:00 | Nuvoloso | 30 | 15 | 40 | 1013 | 6 | O/SO 14.8 | |
| Oggi h: 16:00 | Nuvoloso | 30 | 15 | 40 | 1013 | 6 | O/NO 18.5 | |
| Oggi h: 15:00 | Nuvoloso | 29 | 15 | 42 | 1013 | 6 | O/SO 14.8 | |
| Oggi h: 14:00 | Molto Nuvoloso | 29 | 16 | 45 | 1013 | 6 | O/SO 14.8 | |
| Oggi h: 13:00 | Nuvoloso | 28 | 14 | 42 | 1014 | 6 | O/SO 14.8 | |
| Oggi h: 12:00 | Nuvoloso | 27 | 17 | 54 | 1014 | 6 | O/SO 14.8 | |
| Oggi h: 11:00 | Nuvoloso | 26 | 16 | 54 | 1014 | 6 | O/SO 14.8 | |
| Oggi h: 10:00 | Nuvoloso | 25 | 17 | 61 | 1014 | 6 | O/SO 14.8 | |
| Oggi h: 09:00 | Foschia | 23 | 17 | 68 | 1014 | 5 | O/SO 14.8 | |
| Oggi h: 08:00 | Foschia | 22 | 17 | 73 | 1014 | 5 | O/SO 14.8 | |
| Oggi h: 07:00 | Nuvoloso | 21 | 17 | 77 | 1014 | 6 | O/SO 13 | |
| Oggi h: 06:00 | Poco Nuvoloso | 21 | 17 | 77 | 1013 | 6 | O/SO 11.1 | |
| Oggi h: 05:00 | Sereno | 21 | 17 | 77 | 1013 | 7 | O/SO 13 | |
| Oggi h: 04:00 | Nuvoloso | 21 | 17 | 77 | 1013 | 8 | O/SO 11.1 | |
| Oggi h: 03:00 | Poco Nuvoloso | 22 | 17 | 73 | 1013 | 10 | O/SO 11.1 | |
| Oggi h: 02:00 | Molto Nuvoloso | 22 | 17 | 73 | 1013 | 10 | NO 9.3 | |
| Oggi h: 01:00 | Nuvoloso | 22 | 17 | 73 | 1013 | 10 | O/NO 13 | |
| Oggi h: 00:00 | Nuvoloso | 22 | 18 | 78 | 1013 | 10 | O/NO 11.1 | |
| Ieri h: 23:00 | Sereno | 22 | 16 | 68 | 1013 | 8 | O 9.3 | |
| Ieri h: 22:00 | Poco Nuvoloso | 23 | 16 | 64 | 1013 | 8 | NO 11.1 | |



